This is the latest recevied weather packets stored in our database for station/object N8SHA. If no packets are shown the sender has not sent any weather packets the latest 10 day(s).
| Time | Temp. | Humidity | Pressure | Rain* | Wind** | Luminosity | Snow |
|---|---|---|---|---|---|---|---|
| 1777924159 | 26.11° C | 31% | 1000.3 hPa | 0 mm | - | 699 W/m² | - |
| 1777923855 | 25.56° C | 30% | 1000.4 hPa | 0 mm | - | 763 W/m² | - |
| 1777923551 | 26.11° C | 29% | 1000.5 hPa | 0 mm | - | 726 W/m² | - |
| 1777923249 | 25.56° C | 30% | 1000.6 hPa | 0 mm | - | 687 W/m² | - |
| 1777922947 | 25.56° C | 30% | 1000.5 hPa | 0 mm | - | 744 W/m² | - |
| 1777922644 | 25.56° C | 31% | 1000.5 hPa | 0 mm | - | 750 W/m² | - |
| 1777922343 | 26.11° C | 30% | 1000.5 hPa | 0 mm | - | 761 W/m² | - |
| 1777922040 | 25.56° C | 29% | 1000.7 hPa | 0 mm | - | 824 W/m² | - |
| 1777921735 | 25° C | 31% | 1000.7 hPa | 0 mm | - | 670 W/m² | - |
| 1777921431 | 25° C | 29% | 1000.9 hPa | 0 mm | - | 510 W/m² | - |
| 1777921128 | 25.56° C | 29% | 1000.7 hPa | 0 mm | - | 734 W/m² | - |
| 1777920825 | 25° C | 29% | 1000.7 hPa | 0 mm | - | 748 W/m² | - |
| 1777920521 | 25.56° C | 31% | 1000.9 hPa | 0 mm | - | 877 W/m² | - |
| 1777920217 | 25.56° C | 30% | 1001 hPa | 0 mm | - | 789 W/m² | - |
| 1777919913 | 25° C | 30% | 1000.9 hPa | 0 mm | - | 693 W/m² | - |
| 1777919611 | 25° C | 30% | 1000.8 hPa | 0 mm | - | 788 W/m² | - |
| 1777919308 | 25° C | 29% | 1001.1 hPa | 0 mm | - | 817 W/m² | - |
| 1777919006 | 25° C | 30% | 1001.1 hPa | 0 mm | - | 851 W/m² | - |
| 1777918702 | 25° C | 31% | 1001.2 hPa | 0 mm | - | 735 W/m² | - |
| 1777918400 | 25° C | 28% | 1001 hPa | 0 mm | - | 815 W/m² | - |
| 1777918099 | 24.44° C | 32% | 1001 hPa | 0 mm | - | 820 W/m² | - |
| 1777917797 | 24.44° C | 29% | 1001.2 hPa | 0 mm | - | 840 W/m² | - |
| 1777917495 | 25° C | 29% | 1001.3 hPa | 0 mm | - | 865 W/m² | - |
| 1777917191 | 23.89° C | 31% | 1001.5 hPa | 0 mm | - | 812 W/m² | - |
| 1777916890 | 24.44° C | 30% | 1001.3 hPa | 0 mm | - | 729 W/m² | - |
* Rain latest hour (hover to see other rain measurements)
** Current wind speed in m/s (hover to see current wind gust speed)